GFSGL_700_temp_276.txt.gz
Temp
11 11 11 10 10 10 9 9 9 9 9 9 9 9 9 9 10 10 10 10 10 9 9 10 9 9 9 8 9 9 9 8 8 8 8 8 8 8 8 7 8 8 9
11 11 10 10 10 10 9 9 9 9 9 9 9 9 9 9 9 9 9 9 9 9 9 9 9 9 9 9 9 9 9 9 9 9 8 8 8 8 8 8 8 8 8
11 10 10 10 9 9 9 9 9 8 8 8 8 9 9 9 9 9 9 9 9 9 9 9 9 9 9 9 9 9 9 9 9 9 9 8 8 8 8 8 8 8 8
10 10 10 9 9 8 8 8 8 8 7 8 8 9 9 9 9 9 9 9 9 8 9 9 9 9 9 9 9 9 9 8 8 9 9 8 8 8 8 8 8 8 8
10 10 9 9 9 8 8 7 7 7 7 8 8 9 9 9 9 9 9 9 9 9 9 9 9 9 9 9 9 9 9 9 9 8 8 9 8 8 8 8 9 8 8
10 9 9 9 9 8 8 7 8 7 8 8 9 9 8 9 9 9 9 9 9 10 9 9 9 9 9 8 9 9 9 9 9 9 9 8 8 8 8 8 8 8 8
10 10 9 9 9 8 8 7 8 9 9 8 9 9 9 9 9 9 9 9 9 9 9 9 10 10 10 9 8 8 8 8 8 9 8 8 8 8 8 8 8 8 8
8 8 8 8 7 7 7 7 7 8 8 8 8 9 9 8 9 9 9 9 8 8 8 8 9 9 9 10 10 9 9 8 8 7 8 8 8 8 8 8 8 8 8
8 8 9 7 7 7 7 8 8 8 8 8 8 9 9 8 8 8 8 8 8 8 8 8 8 8 8 9 9 9 9 9 9 9 8 8 8 8 7 7 7 7 8
8 8 8 7 7 7 7 8 8 8 8 8 8 8 8 8 8 8 8 8 8 8 8 8 8 8 8 8 9 9 9 8 8 8 8 7 8 7 7 7 7 7 7
8 8 7 7 7 7 7 8 8 8 8 7 7 7 7 7 7 7 7 7 7 7 7 7 7 7 7 7 7 8 8 9 8 8 8 7 7 7 7 6 6 6 7
8 8 7 7 7 8 8 8 8 7 7 7 7 7 7 6 6 6 6 5 5 5 6 6 6 6 6 6 7 7 7 7 7 8 7 7 7 6 6 6 6 5 6
7 7 7 7 7 7 8 7 7 7 7 7 6 6 6 5 5 4 4 4 5 5 5 4 4 4 4 4 5 5 5 6 6 5 6 6 6 5 5 5 4 5 5
7 7 7 7 7 7 7 6 6 6 6 5 5 5 4 4 4 4 4 4 4 4 3 4 3 3 4 3 3 3 3 4 4 4 4 4 4 3 3 4 4 3 3
7 6 6 6 7 6 6 6 5 5 5 5 4 4 3 3 3 3 3 3 3 3 3 3 3 3 3 3 3 2 2 2 2 2 2 2 -0 -0 1 0 1 1 2
6 6 6 6 6 6 6 5 5 5 5 4 4 3 3 3 3 3 3 2 2 3 3 3 3 2 2 2 1 1 1 1 1 1 0 1 -0 -1 -2 -0 -1 -0 1
6 6 5 6 6 6 5 5 5 5 4 4 4 3 3 3 3 3 3 3 2 2 1 -0 1 1 1 0 0 -0 -1 -0 -0 -0 -1 -0 -0 -0 -2 -1 -0 -1 0
6 5 5 6 6 5 5 5 5 4 4 4 3 3 3 2 2 2 2 2 2 1 0 -1 -1 -1 -0 -0 -2 -1 -1 -2 -2 -2 -2 -2 -2 -2 -1 -2 -2 -1 -2
5 5 5 5 4 5 4 4 4 4 3 2 2 2 2 2 1 1 1 0 -0 -0 -1 -1 -1 -2 -2 -1 -2 -4 -3 -3 -3 -3 -3 -3 -2 -3 -2 -2 -2 -2 -1
5 4 4 4 4 3 3 2 2 2 1 1 1 1 0 1 -0 -1 -1 -1 -1 -2 -2 -1 -2 -2 -2 -2 -2 -4 -4 -4 -4 -3 -3 -3 -2 -2 -2 -2 -2 -2 -2
4 3 2 1 1 1 2 2 1 1 0 0 1 0 0 -1 -2 -2 -2 -2 -2 -2 -1 -1 -2 -2 -2 -2 -2 -3 -4 -5 -5 -4 -4 -3 -2 -2 -2 -3 -2 -1 -1
3 -0 -1 0 -1 -1 -1 -1 -1 -0 -1 -0 -0 -0 -1 -2 -2 -2 -1 -2 -2 -1 -2 -2 -2 -2 -2 -2 -2 -3 -3 -4 -4 -5 -4 -4 -3 -3 -2 -2 -1 -1 -1
1 -1 -1 -0 -1 -1 -2 -1 -1 -1 -1 -1 -1 -1 -2 -2 -2 -1 -1 -1 -1 -1 -1 -1 -2 -2 -2 -2 -3 -3 -3 -3 -3 -3 -4 -4 -3 -2 -2 -1 -1 -1 -1
0 -1 -1 -2 -1 -1 -2 -1 -1 -1 -1 -1 -1 -2 -2 -2 -1 -1 -1 -1 -1 -1 -2 -2 -1 -1 -1 -2 -2 -3 -3 -3 -3 -2 -3 -2 -3 -2 -2 -1 -1 -1 -0
-0 -2 -1 -2 -1 -1 -1 -1 -2 -1 -1 -1 -2 -1 -1 0 -1 -0 -0 -1 -1 -2 -1 -1 -1 -1 -1 -2 -2 -3 -3 -3 -3 -3 -3 -3 -2 -3 -2 -1 -1 -1 -1
-1 -2 -2 -1 -1 -1 -2 -1 -2 -2 -1 -1 -1 -1 -1 -1 -1 -0 -0 -1 -1 -1 -1 -1 -1 -1 -1 -1 -1 -2 -3 -3 -3 -3 -3 -3 -3 -2 -2 -1 -1 -1 -1

GFSGL_700_temp_279.txt.gz
Temp
12 11 10 10 10 9 9 9 8 8 8 9 9 9 9 9 9 9 9 9 9 10 10 9 9 9 9 9 9 9 9 9 8 8 9 9 9 9 9 8 8 8 8
12 11 10 10 10 9 9 8 8 8 8 8 8 8 9 9 9 9 9 9 9 9 9 10 9 9 9 9 9 9 9 9 9 8 8 8 9 9 8 8 8 8 8
12 11 10 10 9 9 8 8 8 8 8 8 8 9 9 9 9 9 9 9 9 10 10 10 10 10 10 10 9 9 9 9 9 9 9 8 8 8 8 8 8 8 8
12 11 10 9 9 9 9 9 8 8 8 8 8 9 9 9 9 9 9 9 9 9 10 10 10 10 10 10 10 9 9 9 9 9 9 9 8 8 8 8 8 8 8
10 11 10 9 9 9 9 8 8 7 8 8 9 9 9 9 9 9 9 9 9 9 9 9 9 9 10 9 9 9 9 9 9 9 9 9 9 9 8 8 8 8 8
8 9 9 9 9 9 8 7 7 7 7 8 9 9 9 9 9 9 9 9 9 9 9 9 9 9 9 9 8 8 8 9 9 10 9 9 9 9 8 8 7 8 9
8 8 8 7 7 8 7 7 6 7 7 7 8 9 8 9 9 9 9 9 9 9 9 8 8 9 9 9 8 8 8 8 8 9 9 9 9 8 8 8 7 7 8
9 9 8 8 7 7 6 6 7 7 7 8 8 8 8 8 8 8 8 8 8 8 8 8 8 8 8 9 9 8 8 8 8 8 9 8 8 8 8 8 8 8 8
9 8 8 8 7 7 7 7 7 7 8 8 8 8 8 8 8 8 8 8 8 7 7 8 8 8 8 8 8 9 8 8 8 8 8 8 8 7 7 8 8 7 8
8 8 8 7 7 7 7 7 7 8 7 7 8 7 7 7 7 7 7 7 7 7 7 7 7 7 7 7 8 8 9 9 9 8 7 7 7 7 7 7 7 8 7
8 8 8 7 7 6 7 7 7 7 7 7 7 7 7 7 7 7 6 7 6 6 6 6 6 6 7 7 7 7 7 8 8 8 9 8 7 7 6 5 5 6 7
8 8 7 6 6 7 7 7 7 7 7 7 7 7 7 6 6 6 6 6 5 5 5 5 6 5 5 6 5 6 6 6 6 7 7 7 7 7 6 6 5 4 5
7 7 6 6 7 7 7 7 7 7 7 7 7 6 6 6 5 5 4 4 4 4 4 4 4 4 4 3 3 3 3 4 5 5 5 5 5 5 4 4 4 3 3
7 6 6 7 7 6 7 7 6 6 6 6 6 5 5 4 4 3 3 4 4 4 4 4 4 3 3 2 2 2 2 3 3 3 3 3 3 3 3 2 2 0 2
7 7 7 6 6 6 6 6 6 5 5 5 4 4 4 3 3 3 2 2 3 3 3 3 3 3 3 2 2 2 2 2 1 1 1 1 1 1 1 1 -1 -1 0
7 7 6 6 6 6 6 6 5 5 5 4 4 3 3 2 2 2 3 3 2 2 2 2 2 2 2 2 1 1 1 1 -0 -1 -1 -1 -1 -1 -0 -1 -2 -2 -1
7 6 5 5 5 5 5 5 5 4 4 4 3 2 2 2 2 2 2 2 1 1 1 1 0 0 0 0 0 -1 -2 -1 -2 -2 -3 -4 -4 -3 -3 -2 -2 -3 -2
6 5 5 5 5 5 5 4 4 4 3 3 2 1 1 1 1 1 1 0 0 -0 0 0 0 0 -0 -0 -1 -2 -2 -2 -3 -3 -4 -4 -3 -3 -3 -2 -3 -2 -2
6 5 4 4 4 3 3 3 3 2 2 2 2 1 0 -0 0 0 -0 -1 -0 -0 -0 0 -0 -0 -1 -1 -2 -2 -2 -2 -3 -4 -5 -4 -4 -3 -3 -3 -2 -3 -3
5 5 3 3 3 2 1 1 0 0 1 0 0 1 -0 -0 -0 -0 -1 -1 -1 -1 -1 -1 -1 -1 -1 -2 -2 -2 -2 -2 -3 -3 -4 -5 -5 -4 -4 -3 -3 -2 -2
4 4 3 3 1 1 -0 -1 -1 -1 -1 -1 -1 -1 -1 -1 -2 -1 -1 -1 -1 -1 -1 -1 -1 -1 -1 -1 -1 -1 -1 -2 -3 -3 -3 -3 -3 -4 -4 -3 -3 -2 -2
3 1 0 -0 -0 -1 -2 -2 -2 -2 -2 -2 -2 -2 -2 -2 -2 -1 -2 -1 -1 -1 -1 -1 -0 -1 -1 -1 -1 -1 -1 -2 -3 -3 -3 -3 -3 -3 -3 -3 -2 -2 -2
1 1 0 -0 -1 -1 -2 -2 -2 -2 -2 -2 -2 -2 -2 -2 -2 -2 -2 -1 -1 -1 -1 -0 -1 -1 -1 -1 -1 -1 -1 -2 -3 -3 -3 -3 -3 -3 -3 -3 -2 -2 -2
0 0 -0 -1 -1 -1 -1 -2 -2 -1 -2 -2 -2 -2 -2 -2 -2 -2 -1 -1 -1 -1 -0 -1 -1 -1 -0 -1 -1 -1 -1 -2 -3 -3 -4 -3 -3 -3 -3 -2 -3 -1 -2
1 -0 -1 -1 -2 -2 -1 -2 -2 -2 -2 -2 -2 -1 -1 -2 -2 -2 -2 -1 -1 -0 -0 -1 -1 -0 -0 -0 -1 -1 -1 -2 -3 -3 -3 -3 -3 -4 -3 -3 -2 -2 -2
0 -0 -1 -1 -2 -2 -1 -1 -2 -2 -2 -2 -2 -1 -2 -2 -1 -1 -1 -0 -0 -0 -1 -1 -1 -1 -1 -1 -1 -1 -1 -2 -2 -3 -3 -3 -3 -4 -4 -3 -2 -2 -1

GFSGL_700_temp_285.txt.gz
Temp
11 11 10 10 10 10 9 9 9 8 8 8 8 8 8 9 9 9 9 9 9 9 9 9 9 9 9 9 9 9 9 9 10 9 9 9 9 9 8 8 9 8 8
11 10 10 10 9 9 9 9 8 8 8 7 8 7 8 8 8 9 9 9 9 9 9 9 9 9 9 9 9 9 10 10 10 9 9 9 9 9 10 9 9 9 9
9 9 9 10 9 9 9 9 8 8 7 7 7 7 7 7 8 8 8 9 9 9 9 9 9 9 9 9 9 9 9 9 10 10 10 9 9 9 9 9 9 9 9
10 9 8 8 9 9 9 9 8 7 7 7 6 7 7 7 8 8 8 8 8 8 8 8 8 8 8 8 8 9 9 9 9 9 9 9 9 9 9 9 9 9 9
10 8 8 8 7 8 8 8 8 7 7 7 6 7 7 7 7 8 8 8 8 8 8 8 8 8 8 8 8 8 8 8 8 8 8 9 9 9 9 9 10 9 9
9 9 7 7 8 7 7 8 7 7 7 7 7 7 7 7 7 8 8 8 8 8 8 8 7 7 7 7 7 8 8 8 8 8 8 8 8 8 9 9 9 9 10
9 9 7 8 8 8 8 8 7 7 7 7 7 7 7 7 7 7 7 7 7 7 7 7 7 7 7 7 6 7 7 7 8 8 8 8 8 8 8 8 9 9 9
11 9 8 8 8 8 7 7 6 7 7 7 7 7 7 7 7 7 7 7 6 6 6 6 6 6 6 6 6 6 6 6 7 7 7 7 8 8 8 8 8 8 9
10 10 9 8 7 7 7 6 6 7 7 7 7 7 7 7 7 6 6 6 6 6 6 6 6 6 6 5 6 6 6 6 6 6 7 7 7 7 7 7 7 8 8
9 9 9 9 9 7 7 7 7 7 7 7 7 7 7 6 6 6 6 6 6 6 6 5 5 5 6 6 6 6 6 7 7 7 7 6 6 6 6 6 7 7 7
9 9 9 8 8 7 7 7 7 7 7 7 7 6 6 6 6 5 5 5 5 4 4 4 4 4 4 4 5 5 5 5 5 6 6 6 6 5 6 6 6 5 5
9 8 8 7 7 6 7 6 6 6 6 6 6 5 5 5 4 4 4 4 4 3 3 3 3 3 3 3 3 3 3 4 4 4 4 4 4 5 5 4 4 4 3
8 8 7 7 6 7 6 6 6 6 6 6 6 6 5 5 5 5 4 4 3 3 3 3 3 3 2 2 2 2 3 3 3 3 3 3 3 3 3 2 2 2 2
8 7 7 6 6 6 6 6 6 6 6 6 5 5 5 4 4 4 4 3 3 3 2 2 2 2 2 2 2 2 1 2 2 2 2 1 1 1 0 -0 -0 0 1
7 7 6 6 6 6 6 6 6 5 5 5 5 4 4 3 3 2 2 1 1 1 1 1 1 1 1 1 1 1 1 1 1 1 1 0 0 -0 -1 -1 -1 -1 -1
7 6 6 6 6 6 5 5 5 5 5 5 4 3 2 2 2 1 0 0 0 0 0 0 1 1 1 1 1 1 1 1 1 1 0 -0 -0 -1 -1 -1 -2 -2 -1
6 6 6 6 6 5 5 5 5 5 4 2 1 1 0 0 -0 -0 -0 -0 -0 -0 -0 0 0 0 0 0 -0 -0 0 0 0 0 -0 -1 -1 -1 -1 -1 -2 -2 -2
7 6 6 6 5 6 5 4 4 3 2 1 1 1 0 -0 -1 -1 -0 -0 -0 -0 -0 -0 -0 0 0 -0 0 0 0 0 0 -0 -1 -1 -1 -2 -2 -2 -2 -2 -2
6 6 6 5 5 4 3 3 3 1 -1 -0 -0 -1 -1 -1 -2 -1 -1 -1 -1 -1 -1 -1 -0 -0 -0 0 0 0 0 -0 -0 -0 -1 -1 -2 -2 -2 -2 -2 -2 -2
5 5 4 4 3 3 3 2 1 -0 -1 -1 -1 -1 -1 -1 -2 -2 -2 -1 -1 -1 -1 -1 -0 -0 -0 0 0 0 -0 -0 -0 -1 -1 -1 -2 -2 -2 -2 -3 -2 -2
5 4 3 3 3 2 1 -0 -0 -0 -1 -1 -1 -1 -1 -1 -1 -2 -2 -2 -1 -1 -1 -1 -1 -0 -0 0 -0 -0 -1 -1 -1 -1 -1 -1 -2 -3 -3 -3 -3 -3 -3
4 3 3 3 2 0 0 0 -0 -1 -1 -1 -1 -1 -1 -2 -2 -2 -2 -1 -1 -1 -1 -1 -1 -0 -0 -0 -0 -1 -1 -1 -1 -1 -1 -1 -2 -3 -3 -3 -3 -3 -3
3 3 3 2 1 -0 0 -1 -1 -1 -1 -1 -1 -1 -2 -2 -2 -2 -2 -2 -2 -2 -1 -1 -0 -0 -0 -0 -1 -1 -1 -1 -1 -1 -1 -2 -2 -3 -3 -3 -3 -4 -3
3 3 2 0 -0 -0 -0 -1 -1 -2 -2 -2 -2 -2 -2 -2 -2 -2 -2 -2 -2 -1 -1 -1 -0 -1 -1 -1 -1 -1 -1 -1 -1 -1 -1 -2 -3 -3 -4 -4 -4 -4 -4
3 2 2 2 0 -0 -1 -1 -1 -1 -1 -2 -2 -2 -2 -2 -2 -2 -2 -2 -1 -1 -1 -1 -1 -1 -1 -1 -1 -1 -1 -1 -1 -1 -2 -2 -3 -3 -4 -5 -5 -4 -4
3 2 2 2 0 -0 -1 -1 -1 -2 -2 -2 -2 -2 -2 -2 -2 -2 -2 -1 -1 -1 -1 -1 -1 -1 -1 -1 -1 -1 -1 -2 -2 -2 -2 -2 -3 -4 -4 -5 -6 -5 -4

GFSGL_700_temp_291.txt.gz
Temp
12 11 11 11 11 10 10 10 9 9 9 9 8 8 8 8 8 8 8 9 9 9 10 10 10 10 10 10 10 10 10 10 10 10 10 10 10 10 10 10 9 9 9
12 12 11 11 11 10 10 10 9 9 8 8 8 8 7 8 8 8 8 8 9 9 9 9 9 9 9 9 9 9 9 9 9 10 9 9 10 10 10 10 10 10 10
12 11 11 11 10 10 10 10 10 9 8 8 8 7 7 7 8 8 8 8 8 8 9 9 9 9 9 9 9 9 9 9 9 9 9 9 9 10 9 10 10 10 10
12 12 12 11 11 10 10 9 9 9 8 8 7 7 8 8 8 8 8 8 8 8 9 9 9 8 8 8 8 8 8 8 8 8 8 9 9 9 9 9 9 9 9
12 11 11 10 10 9 8 9 8 8 8 7 7 7 8 8 8 8 8 8 8 8 8 8 8 7 7 7 7 7 7 8 8 8 8 8 8 8 8 9 9 9 9
12 12 11 11 10 8 6 6 6 7 8 7 7 8 8 8 8 8 8 8 8 7 7 7 7 7 7 7 7 7 7 7 7 7 7 7 8 8 8 9 9 9 9
12 11 11 10 9 8 7 6 6 8 8 8 8 8 7 8 8 8 8 7 7 7 7 7 7 7 7 7 6 6 7 6 6 7 7 7 7 7 7 8 8 8 8
11 11 10 11 10 10 8 7 8 8 8 7 7 8 8 8 8 7 7 7 7 7 6 6 6 6 6 6 5 6 6 5 5 5 6 6 6 6 6 6 6 7 7
11 11 11 11 10 10 8 8 8 7 7 7 7 7 8 7 7 7 7 7 6 6 6 6 5 5 5 5 5 5 5 5 5 5 5 5 6 6 6 6 6 7 7
11 11 11 10 10 9 9 8 7 7 7 7 7 7 7 7 7 7 6 6 6 6 6 5 5 4 4 4 4 4 4 5 5 5 5 5 5 6 6 6 5 5 5
12 12 11 10 9 9 8 8 7 7 7 7 7 7 7 6 6 6 6 6 5 5 4 3 4 4 3 4 4 4 4 4 4 4 5 4 3 3 3 3 4 4 4
12 11 11 10 9 9 8 8 7 7 7 7 7 6 6 6 6 6 6 5 5 4 4 3 3 3 3 3 2 3 3 3 3 4 3 3 3 3 3 3 3 3 3
12 11 11 9 9 8 8 7 7 7 7 7 6 6 6 6 5 5 5 4 3 3 3 2 2 2 2 2 3 2 3 3 3 1 3 3 3 2 2 3 2 2 2
10 10 9 9 9 8 8 7 7 7 7 6 6 5 5 5 5 5 4 3 2 2 2 2 2 1 -0 -1 -1 -1 -2 -2 -2 -1 -0 1 1 1 1 1 0 -2 -1
11 9 8 8 8 8 7 7 7 7 6 6 5 5 5 4 4 3 1 1 1 1 1 1 1 -1 -1 -0 -1 -2 -2 -1 0 1 1 1 1 1 0 -2 -2 -2 -3
10 9 8 7 7 7 7 7 7 6 6 5 5 5 4 3 3 2 1 1 0 0 -0 -0 -0 -1 -1 -1 -1 -2 -1 0 0 1 1 1 0 -0 -1 -2 -2 -3 -4
9 9 8 7 7 7 7 7 6 6 6 5 4 4 3 2 2 1 1 0 -0 -0 -1 -1 -1 -2 -2 -1 -2 -0 0 0 0 0 0 -0 -1 -1 -1 -4 -4 -4 -4
8 8 7 7 6 6 6 6 6 5 5 4 4 3 2 1 1 1 0 -0 -0 -1 -0 -1 -1 -1 -2 -1 -0 0 0 0 0 0 -1 -1 -1 -2 -2 -1 -2 -3 -2
7 7 7 6 6 6 6 5 5 5 4 4 3 3 1 1 1 0 -1 -1 -1 -1 -1 -2 -2 -2 -1 -0 0 0 0 -0 -0 -0 -1 -1 -1 -1 -2 -2 -2 -2 -2
6 6 6 6 6 6 5 5 4 4 4 3 0 -0 -0 -0 -0 -1 -1 -1 -1 -1 -2 -1 -2 -1 -0 -0 0 -0 -0 -1 -1 -1 -1 -1 -2 -2 -2 -2 -2 -3 -4
6 6 5 5 5 5 4 4 4 3 0 0 0 -0 0 -1 -1 -1 -1 -1 -1 -1 -0 -1 -1 -1 -0 -0 -0 -1 -1 -1 -1 -1 -1 -1 -2 -2 -2 -2 -3 -3 -6
6 6 5 5 4 4 4 4 2 1 1 1 1 0 0 -0 -1 -1 -0 -1 -1 -1 -2 -1 -1 -1 -0 -0 -1 -1 -1 -1 -1 -1 -1 -2 -2 -2 -2 -3 -3 -3 -5
6 6 5 4 4 4 3 1 0 0 1 1 1 -0 0 -0 -0 -1 -1 -0 -1 -2 -1 -1 -1 -1 -1 -1 -1 -1 -1 -1 -1 -1 -1 -2 -2 -2 -2 -3 -3 -4 -5
5 4 4 3 3 3 1 1 0 1 1 0 1 0 -0 -0 -1 -1 -1 -1 -2 -1 -1 -1 -1 -1 -1 -1 -1 -1 -1 -1 -1 -1 -1 -2 -2 -2 -3 -3 -4 -4 -6
4 3 2 1 2 2 1 1 1 1 0 0 -0 -0 -1 -0 -0 -1 -0 -1 -1 -1 -1 -1 -1 -1 -1 -1 -1 -1 -2 -1 -1 -1 -1 -2 -2 -2 -3 -4 -4 -5 -5
2 1 1 1 1 1 1 1 1 1 0 0 -0 -1 -1 -1 -1 -1 -1 -2 -1 -2 -2 -1 -2 -1 -1 -1 -1 -2 -2 -2 -1 -1 -1 -2 -2 -2 -3 -3 -4 -5 -6